www.pogodaiklimat.ru

Погода и климат >> Архив погоды >> Украина >> Могилев-Подольский


ПОГОДА в Могилев-Подольском

  • Прогноз погоды в Могилев-Подольском
  • Монитор погоды в Могилев-Подольском

АРХИВ ПОГОДЫ в Могилев-Подольском

Время (UTC), дата Ветер
(напр.,м/с)
 
Видим.   Явления Облачность Т
(С)
Тd
(С)
f
(%)
Тe
(С)
Тes
(С)
Комфортность P
(гПа)
Po
(гПа)
Тmin
(С)
Tmax
(С)
R
(мм)
R24
(мм)
S
(см)
15 16.07 В 1 20 км {ливн. осадки} 8/4 600 м
[Cb calv Ac trans]
+21.9 +13.4 58 +25 +27 комфорт 1009.6 1000.6
18 16.07 штиль 0 10 км {ливн. осадки} 1/0
[Ac trans]
+20.8 +15.9 74 +24 +24 комфорт 1009.1 1000.1 +24.2 2
21 16.07 штиль 0 10 км ясно +14.4 +13.1 92 +14 +14 1009.8 1000.5
00 17.07 штиль 0 10 км ясно +12.0 +10.9 93 +11 +11 1009.7 1000.4
03 17.07 штиль 0 10 км 4/0
[Ac trans]
+11.9 +11.0 94 +11 +11 1009.8 1000.5
06 17.07 СЗ 1 20 км 9/6 600 м
[Cb calv Ac trans]
+15.6 +14.2 91 +16 +18 1010.0 1000.8 +11.6
09 17.07 З 1 20 км 8/4 600 м
[Cb calv Ac trans]
+18.8 +13.7 72 +21 +28 комфорт 1010.1 1001.0
12 17.07 З 1 20 км 6/3 600 м
[Cu med, cong Ac trans]
+21.6 +12.4 56 +24 +33 комфорт 1009.6 1000.6
15 17.07 З 2 20 км 5/5 600 м
[Cb calv]
+24.5 +11.9 45 +26 +28 жарко 1008.2 999.3
18 17.07 СЗ 2 10 км 5/5 600 м
[Sc]
+20.8 +10.7 52 +23 +23 комфорт 1008.9 999.8 +24.8
21 17.07 СЗ 1 10 км ясно +13.8 +11.8 88 +14 +14 1010.9 1001.6
00 18.07 штиль 0 10 км ясно +11.0 +10.0 94 +10 +10 1011.1 1001.7
03 18.07 штиль 0 10 км ясно +9.2 +8.4 95 +8 +8 1012.0 1002.5
06 18.07 СЗ 1 20 км ясно +15.7 +11.9 78 +16 +24 1012.1 1002.9 +8.7
09 18.07 СЗ 3 20 км 4/4 600 м
[Cu med, cong]
+22.4 +10.2 46 +24 +32 комфорт 1012.3 1003.3
12 18.07 З 2 20 км 6/4 600 м
[Cb calv Ac trans]
+23.2 +11.2 47 +25 +33 комфорт 1012.3 1003.3
15 18.07 З 2 20 км 3/3 600 м
[Cu med, cong Ac trans]
+24.8 +10.6 41 +26 +29 жарко 1012.3 1003.3
18 18.07 штиль 0 10 км 3/0
[Ci fib]
+20.8 +14.5 67 +23 +23 комфорт 1013.0 1003.9 +25.1
21 18.07 штиль 0 10 км 4/0
[Ci fib]
+13.6 +12.1 91 +13 +13 1014.6 1005.3
00 19.07 С 1 10 км 8/0
[Ac trans Ci fib]
+11.8 +10.6 92 +12 +12 1015.5 1006.1
03 19.07 штиль 0 10 км 8/4 600 м
[Sc Ac trans Ci fib]
+11.8 +10.6 92 +11 +11 1016.2 1006.8
06 19.07 З 1 20 км 6/3 600 м
[Sc Ac trans Ci fib]
+16.4 +12.6 78 +17 +22 1016.9 1007.6 +11.6
09 19.07 С 1 20 км 4/0
[Ac trans]
+25.0 +11.2 42 +26 +41 жарко 1015.6 1006.6
12 19.07 СЗ 2 20 км 8/0
[Ac trans]
+26.2 +11.2 39 +27 +35 жарко 1015.6 1006.6
15 19.07 СЗ 1 20 км 3/0
[Ac trans]
+27.8 +10.7 34 +28 +33 жарко 1015.5 1006.6
18 19.07 штиль 0 10 км ясно +24.7 +15.5 57 +28 +28 душно 1015.6 1006.6 +28.1
21 19.07 штиль 0 10 км ясно +16.0 +14.4 90 +16 +16 1016.7 1007.4
00 20.07 штиль 0 10 км ясно +14.0 +12.9 93 +14 +14 1017.2 1007.9
03 20.07 штиль 0 10 км ясно +12.8 +11.7 93 +12 +12 1017.8 1008.4
06 20.07 штиль 0 20 км 3/0
[Ac trans]
+19.0 +13.7 71 +20 +27 1017.8 1008.6 +12.5
09 20.07 З 1 20 км 6/0
[Ac trans Ci fib]
+28.0 +14.6 44 +30 +45 жарко 1017.6 1008.7
12 20.07 С 2 20 км 8/4 600 м
[Cu med, cong Ac trans Ci fib]
+30.6 +13.4 35 +32 +38 жарко 1017.2 1008.4
15 20.07 С 2 20 км гроза без осадков 9/6 600 м
[Cb calv Ac trans Ci fib]
+25.0 +13.4 49 +27 +28 жарко 1017.1 1008.1
18 20.07 В 1 10 км {гроза} 8/5 600 м
[Cb calv Ac trans]
+24.1 +15.5 59 +27 +27 жарко 1017.3 1008.3 +30.8
21 20.07 штиль 0 10 км {гроза} ясно +18.8 +15.8 83 +20 +20 1018.1 1008.9
00 21.07 штиль 0 10 км {гроза} ясно +15.8 +14.6 93 +16 +16 1018.5 1009.2
03 21.07 штиль 0 10 км ясно +14.0 +13.1 94 +14 +14 1018.6 1009.2
06 21.07 штиль 0 20 км ясно +19.0 +15.4 80 +20 +29 1018.7 1009.5 +13.7
09 21.07 С 1 20 км 4/0
[Ac trans Ci fib]
+28.6 +15.9 46 +32 +47 душно 1018.1 1009.2
12 21.07 С 2 20 км 3/3 600 м
[Cu med, cong]
+30.6 +14.8 38 +33 +43 душно 1017.6 1008.8
15 21.07 С 1 20 км 3/3 600 м
[Cu med, cong]
+31.0 +15.3 39 +33 +37 душно 1016.4 1007.6
18 21.07 штиль 0 10 км 4/3 600 м
[Sc diur, vesp Ci fib]
+25.4 +18.0 64 +30 +30 душно 1016.8 1007.8 +31.3
21 21.07 штиль 0 10 км ясно +19.4 +17.3 88 +21 +21 комфорт 1017.2 1008.1
00 22.07 З 1 10 км 6/0
[Ac trans Ci fib]
+18.0 +16.5 91 +19 +19 1018.0 1008.8
03 22.07 штиль 0 10 км 8/4 600 м
[Sc Ac trans Ci fib]
+17.8 +16.3 91 +18 +18 1018.0 1008.8
06 22.07 СЗ 1 20 км 6/0
[Ac trans Ci fib]
+21.0 +17.4 80 +26 +32 душно 1018.4 1009.3 +17.2
09 22.07 СЗ 2 20 км 6/4 600 м
[Cu med, cong Ci fib]
+26.5 +16.1 53 +30 +39 душно 1018.3 1009.3
12 22.07 З 3 20 км 4/4 600 м
[Cu med, cong]
+28.0 +17.0 51 +32 +39 душно 1017.9 1009.0
15 22.07 СВ 2 20 км 6/6 600 м
[Cb calv]
+25.2 +17.0 60 +29 +31 душно 1017.1 1008.1
18 22.07 штиль 0 10 км 5/0
[Ac trans]
+24.6 +18.1 67 +29 +29 душно 1017.3 1008.3 +29.0
21 22.07 штиль 0 10 км ясно +18.3 +14.5 79 +19 +19 1018.0 1008.8
00 23.07 штиль 0 10 км 4/0
[Ac trans]
+15.4 +14.1 92 +15 +15 1017.9 1008.6
03 23.07 штиль 0 10 км 8/0
[Ac trans]
+14.6 +13.3 92 +14 +14 1017.6 1008.3
06 23.07 СЗ 1 20 км 10/0
[Ac und]
+16.9 +14.7 87 +18 +20 1017.1 1007.9 +14.3
09 23.07 З 3 20 км 10/4 600 м
[Cb calv Ac und]
+20.2 +13.2 64 +23 +25 комфорт 1017.0 1007.9
12 23.07 СЗ 2 20 км {ливн. осадки} 6/3 600 м
[Cu med, cong Ac trans]
+24.1 +15.1 57 +27 +34 жарко 1016.0 1007.0

 

Местоположение метеостанции Могилев-Подольский (Винницкая область, Украина): широта 48.45 долгота 27.78 высота над уровнем моря 78 м.

В архиве по умолчанию представлена погода в Могилев-Подольском за последнюю неделю. Архивные данные за месяц целиком и за предыдущие месяцы, начиная с января 2011 года, Вы можете получить, выбрав интересующий диапазон дат из раскрывающегося списка и нажав кнопку "Ввод!".


*Определитесь, кто Вы:
робот инопланетянин человек

Внимание! Время в таблицах - всемирное. Для получения местного времени необходимо прибавить поправку, которая равна 2 ч.

Смотрите также архив погоды в соседних городах и на ближайших метеорологических станциях:

Погода в Новоднестровске (Черновицкая область, Украина) (28 км)
Погода в Сороках (Молдова) (47 км)
Погода в Бричанах (Молдова) (53 км)
Погода в Новой Ушице (Хмельницкая область, Украина) (58 км)
Погода в Жмеринке (Винницкая область, Украина) (71 км)
Погода в Бельцах (Молдова) (76 км)
Погода в Штефанешты (Румыния) (81 км)
Погода в Каменке (Молдова) (83 км)
Погода в Каменец-Подольском (Хмельницкая область, Украина) (85 км)
Погода в Дарабани (Румыния) (93 км)

Пояснения к столбцам:

Ветер - указаны скорость ветра в м/с - средняя за 10 мин, порывы в срок и между сроками (в фигурных скобках) и направление, откуда дует ветер: С - северный, СВ - северо-восточный, В - восточный, ЮВ - юго-восточный, Ю - южный, ЮЗ - юго-западный, З - западный, СЗ - северо-западный.
Видимость - горизонтальная дальность видимости в метрах или километрах. При видимости от 1 до 10 км при отсутствии осадков обычно наблюдается дымка, при ухудшении видимости до 1 км и менее - туман. В сухую погоду видимость может ухудшаться дымом, пылью или мглою.
Явления - указаны атмосферные явления, наблюдавшиеся в срок или в последний час перед сроком; фигурными скобками обозначены явления, наблюдавшиеся между сроками (за 1-3 часа до срока); квадратными скобками обозначены град или гололедные отложения с указанием их диаметра в мм.
Облачность - указаны через наклонную черту общая и нижняя облачность в баллах и высота нижней границы облаков в метрах; квадратными скобками обозначены формы облаков: Ci - перистые, Cs - перисто-слоистые, Cc - перисто-кучевые, Ac - высококучевые, As - высокослоистые, Sc - слоисто-кучевые, Ns - слоисто-дождевые, Cu - кучевые, Cb - кучево-дождевые. Подробнее классификацию облаков см. в Атласе облаков (PDF).
T - Температура воздуха - температура, измеренная на высоте 2 м над землей.
Td - Температура точки росы - температура, при понижении до которой содержащийся в воздухе водяной пар достигнет насыщения.
f - Относительная влажность воздуха - влажноcть воздуха, измеренная на высоте 2 м над землей.
Te - Эффективная температура - температура, которую ощущает одетый по сезону человек в тени. Характеристика душности погоды. При расчете учитывается влияние влажности воздуха и скорости ветра на теплоощущения человека.
Tes - Эффективная температура на солнце - температура, которую ощущает человек, с поправкой на солнечный нагрев. Характеристика знойности погоды. Зависит от высоты солнца над горизонтом, облачности и скорости ветра. Ночью, в пасмурную погоду, а также при ветре 12 м/с и более поправка равна нулю.
P - Атмосферное давление - приведенное к уровню моря атмосферное давление.
Po - Атмосферное давление - измеренное на уровне метеостанции атмосферное давление.
Tmin - Минимальная температура - минимум температуры воздуха на высоте 2 м над землей.
Tmax - Максимальная температура - максимум температуры воздуха на высоте 2 м над землей.
R - Количество осадков - Количество выпавших осадков за период времени, мм. При наведении курсора мыши на число - период времени, за который выпало указанное количество осадков.
R24 - Количество осадков - Количество выпавших осадков за 24 часа, мм.
S - Снежный покров - Высота снежного покрова, см. При наведении курсора мыши на число - состояние снежного покрова и степень покрытия местности в баллах.